Weather History for Houma, LA

Change the Weather History Date:

Monday, October 14, 2013

  Actual Average Record
Temperature  
Mean Temperature 76 °F -  
Max Temperature 87 °F 80 °F 90 °F (1947)
Min Temperature 66 °F 58 °F 33 °F (1996)
Cooling Degree Days 12    
Growing Degree Days 26 (Base 50)    
Moisture  
Dew Point 65 °F    
Average Humidity 81    
Maximum Humidity 94    
Minimum Humidity 40    
Precipitation  
Precipitation 0.00 in - - ()
Sea Level Pressure  
Sea Level Pressure 30.07 in    
Wind  
Wind Speed 2 mph (ENE)    
Max Wind Speed 12 mph    
Max Gust Speed -    
Visibility 6 miles    
Events Fog    
Averages and records for this station are not official NWS values.
T = Trace of Precipitation, MM = Missing Value Source: NWS Daily Summary

Daily Weather History Graph

Daily Weather History Graph

Search for Another Location

Airport:

Trip Planner

Search our weather history database for the weather conditions in past years. The results will help you decide how hot, cold, wet, or windy it might be!

Date:

Astronomy

Oct. 14, 2013 Rise Set
Actual Time 7:03 AM CDT 6:32 PM CDT
Civil Twilight 6:39 AM CDT 6:56 PM CDT
Nautical Twilight 6:12 AM CDT 7:24 PM CDT
Astronomical Twilight 5:44 AM CDT 7:52 PM CDT
Moon 3:45 PM CDT (10/14) 2:40 AM CDT (10/14)
Length of Visible Light 12h 17m
Length of Day
11h 29m
Waxing Gibbous, 79% of the Moon is Illuminated
Oct 14
Waxing Gibbous
Oct 18
Full
Oct 26
Last Quarter
Nov 3
New
Nov 9
First Quarter

Hourly Weather History & Observations

Time (CDT) Temp. Heat Index Dew Point Humidity Pressure Visibility Wind Dir Wind Speed Gust Speed Precip Events Conditions
12:15 AM 70.7 °F - 67.8 °F 91% 30.11 in 7.0 mi Calm Calm - N/A   Scattered Clouds
12:35 AM 70.7 °F - 67.6 °F 90% 30.10 in 5.0 mi Calm Calm - N/A   Scattered Clouds
12:55 AM 70.5 °F - 67.6 °F 91% 30.10 in 5.0 mi Calm Calm - N/A   Mostly Cloudy
1:15 AM 71.1 °F - 68.2 °F 91% 30.10 in 7.0 mi Calm Calm - N/A   Mostly Cloudy
1:35 AM 70.9 °F - 68.2 °F 91% 30.10 in 7.0 mi Calm Calm - N/A   Mostly Cloudy
1:55 AM 69.8 °F - 67.1 °F 91% 30.09 in 7.0 mi Calm Calm - N/A   Scattered Clouds
2:15 AM 69.1 °F - 66.2 °F 91% 30.09 in 5.0 mi Calm Calm - N/A   Scattered Clouds
2:35 AM 68.4 °F - 65.7 °F 91% 30.09 in 7.0 mi Calm Calm - N/A   Clear
2:55 AM 69.1 °F - 66.4 °F 91% 30.09 in 1.2 mi Calm Calm - N/A   Scattered Clouds
3:15 AM 68.5 °F - 65.8 °F 91% 30.08 in 3.0 mi Calm Calm - N/A   Scattered Clouds
3:35 AM 68.4 °F - 65.7 °F 91% 30.08 in 2.5 mi Calm Calm - N/A   Mostly Cloudy
3:55 AM 68.0 °F - 65.3 °F 91% 30.07 in 0.5 mi Calm Calm - N/A Fog Fog
4:15 AM 67.6 °F - 64.9 °F 91% 30.07 in 2.0 mi Calm Calm - N/A   Clear
4:35 AM 67.3 °F - 64.8 °F 92% 30.08 in 0.8 mi Calm Calm - N/A   Mist
4:55 AM 67.1 °F - 64.6 °F 92% 30.08 in 0.5 mi Calm Calm - N/A Fog Fog
5:15 AM 67.1 °F - 64.4 °F 91% 30.09 in 1.0 mi Calm Calm - N/A   Mist
5:35 AM 66.4 °F - 63.7 °F 91% 30.08 in 5.0 mi Calm Calm - N/A   Clear
5:48 AM 66.2 °F - 64.4 °F 94% 30.09 in 5.0 mi NE 4.6 mph - N/A   Clear
5:55 AM 66.6 °F - 64.2 °F 92% 30.09 in 0.5 mi Calm Calm - N/A Fog Fog
6:50 AM 69.8 °F - 68.0 °F 94% 30.11 in 5.0 mi NE 6.9 mph - N/A   Partly Cloudy
7:50 AM 71.6 °F - 68.0 °F 88% 30.11 in 4.0 mi NE 6.9 mph - N/A   Partly Cloudy
8:50 AM 77.0 °F - 71.6 °F 83% 30.12 in 5.0 mi North 6.9 mph - N/A   Clear
9:48 AM 80.6 °F 83.2 °F 68.0 °F 65% 30.12 in 7.0 mi NE 11.5 mph - N/A   Clear
10:48 AM 82.4 °F 83.4 °F 62.6 °F 51% 30.12 in 7.0 mi ENE 11.5 mph - N/A   Scattered Clouds
11:48 AM 84.2 °F 83.8 °F 59.0 °F 42% 30.11 in 7.0 mi NNE 11.5 mph - N/A   Partly Cloudy
12:48 PM 86.0 °F 86.1 °F 60.8 °F 43% 30.09 in 7.0 mi ENE 11.5 mph - N/A   Scattered Clouds
1:50 PM 84.2 °F 84.4 °F 60.8 °F 45% 30.04 in 7.0 mi ENE 9.2 mph - N/A   Scattered Clouds
2:50 PM 87.8 °F 87.6 °F 60.8 °F 40% 30.03 in 7.0 mi ENE 8.1 mph - N/A   Scattered Clouds
3:50 PM 86.0 °F 86.1 °F 60.8 °F 43% 30.02 in 7.0 mi ENE 5.8 mph - N/A   Scattered Clouds
4:50 PM 84.2 °F 84.4 °F 60.8 °F 45% 30.02 in 7.0 mi ENE 8.1 mph - N/A   Scattered Clouds
5:50 PM 80.6 °F 81.8 °F 62.6 °F 54% 30.03 in 7.0 mi ESE 4.6 mph - N/A   Partly Cloudy
6:50 PM 75.2 °F - 66.2 °F 73% 30.03 in 7.0 mi ESE 4.6 mph - N/A   Partly Cloudy
7:15 PM 71.8 °F - 66.6 °F 84% 30.03 in 10.0 mi Calm Calm - N/A   Clear
7:35 PM 71.6 °F - 66.4 °F 84% 30.03 in 7.0 mi Calm Calm - N/A   Clear
7:55 PM 70.0 °F - 66.2 °F 88% 30.03 in 10.0 mi Calm Calm - N/A   Clear
8:15 PM 69.6 °F - 66.0 °F 88% 30.04 in 7.0 mi Calm Calm - N/A   Clear
8:35 PM 69.1 °F - 65.5 °F 88% 30.04 in 10.0 mi Calm Calm - N/A   Clear
8:55 PM 70.0 °F - 64.6 °F 83% 30.04 in 10.0 mi East 3.5 mph - N/A   Clear
9:15 PM 68.9 °F - 64.4 °F 86% 30.04 in 10.0 mi East 3.5 mph - N/A   Clear
9:35 PM 70.7 °F - 64.4 °F 80% 30.04 in 10.0 mi East 4.6 mph - N/A   Clear
9:55 PM 70.7 °F - 64.8 °F 81% 30.04 in 10.0 mi ESE 4.6 mph - N/A   Clear
10:15 PM 71.2 °F - 65.5 °F 82% 30.05 in 7.0 mi East 3.5 mph - N/A   Clear
10:35 PM 69.3 °F - 64.9 °F 86% 30.04 in 10.0 mi Calm Calm - N/A   Clear
10:55 PM 68.4 °F - 64.8 °F 88% 30.04 in 7.0 mi Calm Calm - N/A   Clear
11:15 PM 68.0 °F - 64.8 °F 89% 30.04 in 7.0 mi Calm Calm - N/A   Clear
11:35 PM 68.0 °F - 64.8 °F 89% 30.04 in 7.0 mi Calm Calm - N/A   Clear
11:55 PM 68.0 °F - 64.9 °F 90% 30.03 in 7.0 mi Calm Calm - N/A   Clear